| time (UTC) | temp F | wind direction | speed MPH | gust MPH | rain 1hr in | rain 24hr in | rain mn in | humidity % | barometer mb |
| 20260905024526 | 74 | 313 | 0.0 | 0.0 | 0.01 | 0.04 | 0.04 | 92 | 1013.3 |
| 20260905023027 | 74 | 312 | 0.0 | 0.0 | 0.00 | 0.03 | 0.03 | 92 | 1013.4 |
| 20260905021521 | 74 | 311 | 0.0 | 0.0 | 0.00 | 0.03 | 0.03 | 92 | 1013.4 |
| 20260905020020 | 74 | 311 | 0.0 | 0.0 | 0.00 | 0.03 | 0.03 | 91 | 1013.4 |
| 20260905014520 | 74 | 311 | 0.0 | 0.0 | 0.00 | 0.03 | 0.03 | 91 | 1013.3 |
| 20260905013019 | 74 | 311 | 0.0 | 0.0 | 0.00 | 0.03 | 0.03 | 91 | 1013.3 |
| 20260905011524 | 74 | 311 | 0.0 | 0.0 | 0.00 | 0.03 | 0.03 | 91 | 1013.4 |
| 20260905010018 | 75 | 311 | 0.0 | 0.0 | 0.00 | 0.03 | 0.03 | 90 | 1013.2 |
| 20260905004520 | 75 | 311 | 0.0 | 0.0 | 0.00 | 0.03 | 0.03 | 89 | 1013.2 |
| 20260905003028 | 76 | 311 | 0.0 | 0.0 | 0.00 | 0.03 | 0.03 | 89 | 1013.2 |
| 20260905001517 | 76 | 311 | 0.0 | 0.0 | 0.00 | 0.03 | 0.03 | 88 | 1013.1 |
| 20260905000029 | 77 | 311 | 0.0 | 0.0 | 0.00 | 0.03 | 0.03 | 87 | 1013.0 |
| 20260904234516 | 77 | 311 | 0.0 | 0.0 | 0.00 | 0.03 | 0.03 | 86 | 1012.9 |
| 20260904233016 | 77 | 311 | 0.0 | 0.0 | 0.00 | 0.03 | 0.03 | 86 | 1012.8 |
| 20260904231519 | 78 | 311 | 0.0 | 0.0 | 0.00 | 0.03 | 0.03 | 86 | 1012.7 |
| 20260904230039 | 78 | 311 | 0.0 | 0.0 | 0.00 | 0.03 | 0.03 | 86 | 1012.5 |
| 20260904224515 | 78 | 311 | 0.0 | 0.0 | 0.00 | 0.04 | 0.03 | 86 | 1012.5 |
| 20260904223014 | 78 | 311 | 0.0 | 0.0 | 0.00 | 0.04 | 0.03 | 86 | 1012.6 |
| 20260904221513 | 78 | 311 | 0.0 | 0.0 | 0.00 | 0.04 | 0.03 | 85 | 1012.2 |
| 20260904220013 | 78 | 311 | 0.0 | 0.0 | 0.00 | 0.04 | 0.03 | 84 | 1012.3 |
| 20260904214513 | 78 | 311 | 0.0 | 0.0 | 0.00 | 0.05 | 0.03 | 85 | 1012.2 |
| 20260904213011 | 78 | 310 | 0.0 | 0.0 | 0.00 | 0.05 | 0.03 | 85 | 1012.2 |
| 20260904211513 | 78 | 310 | 0.0 | 0.0 | 0.00 | 0.05 | 0.03 | 85 | 1012.1 |
| 20260904210018 | 77 | 305 | 0.0 | 0.0 | 0.00 | 0.05 | 0.03 | 85 | 1011.8 |
| 20260904204507 | 77 | 296 | 0.0 | 0.0 | 0.00 | 0.05 | 0.03 | 85 | 1011.5 |
| 20260904203006 | 77 | 232 | 0.0 | 0.0 | 0.00 | 0.05 | 0.03 | 86 | 1011.4 |
| 20260904201504 | 77 | 221 | 0.0 | 0.0 | 0.01 | 0.05 | 0.03 | 86 | 1011.7 |
| 20260904200008 | 76 | 221 | 0.0 | 0.0 | 0.01 | 0.05 | 0.03 | 86 | 1011.8 |
| 20260904194602 | 76 | 217 | 0.0 | 0.0 | 0.01 | 0.05 | 0.03 | 88 | 1012.0 |
| 20260904193057 | 76 | 215 | 0.0 | 0.0 | 0.01 | 0.05 | 0.03 | 88 | 1012.1 |
| 20260904191554 | 76 | 216 | 0.0 | 0.0 | 0.00 | 0.04 | 0.02 | 88 | 1012.6 |
| 20260904190051 | 75 | 214 | 0.0 | 0.0 | 0.00 | 0.04 | 0.02 | 90 | 1012.8 |
| 20260904184607 | 74 | 282 | 0.0 | 0.0 | 0.00 | 0.04 | 0.02 | 91 | 1013.1 |
| 20260904183046 | 74 | 279 | 0.0 | 0.0 | 0.00 | 0.04 | 0.02 | 94 | 1013.2 |
| 20260904181545 | 73 | 270 | 0.0 | 0.0 | 0.00 | 0.04 | 0.02 | 95 | 1013.3 |
| 20260904180044 | 73 | 257 | 0.0 | 0.0 | 0.00 | 0.04 | 0.02 | 96 | 1013.3 |
| 20260904174610 | 72 | 213 | 0.0 | 2.0 | 0.00 | 0.04 | 0.02 | 96 | 1013.5 |
| 20260904173045 | 72 | 227 | 0.0 | 0.0 | 0.00 | 0.04 | 0.02 | 96 | 1013.7 |
| 20260904171538 | 72 | 228 | 0.0 | 0.0 | 0.00 | 0.04 | 0.02 | 96 | 1013.9 |
| 20260904170046 | 71 | 213 | 0.0 | 3.0 | 0.00 | 0.04 | 0.02 | 96 | 1013.9 |
| 20260904164537 | 71 | 209 | 0.0 | 0.0 | 0.00 | 0.04 | 0.02 | 96 | 1014.3 |
| 20260904163048 | 70 | 209 | 0.0 | 0.0 | 0.01 | 0.04 | 0.02 | 96 | 1014.5 |
| 20260904161536 | 70 | 209 | 0.0 | 0.0 | 0.01 | 0.04 | 0.02 | 96 | 1014.4 |
| 20260904160035 | 71 | 209 | 0.0 | 0.0 | 0.01 | 0.04 | 0.02 | 96 | 1015.0 |
| 20260904154535 | 71 | 209 | 0.0 | 0.0 | 0.01 | 0.04 | 0.02 | 96 | 1015.3 |
| 20260904153034 | 70 | 209 | 0.0 | 0.0 | 0.00 | 0.03 | 0.01 | 96 | 1015.8 |
| 20260904151533 | 70 | 209 | 0.0 | 0.0 | 0.00 | 0.03 | 0.01 | 96 | 1015.3 |
| 20260904150036 | 70 | 209 | 0.0 | 0.0 | 0.00 | 0.03 | 0.01 | 96 | 1015.8 |
| 20260904144532 | 71 | 208 | 0.0 | 0.0 | 0.00 | 0.03 | 0.01 | 96 | 1016.0 |
| 20260904143032 | 71 | 207 | 0.0 | 0.0 | 0.00 | 0.03 | 0.01 | 96 | 1016.2 |
| 20260904141529 | 71 | 207 | 0.0 | 0.0 | 0.00 | 0.03 | 0.01 | 96 | 1016.0 |
| 20260904140028 | 71 | 207 | 0.0 | 0.0 | 0.00 | 0.03 | 0.01 | 96 | 1015.7 |
| 20260904134525 | 71 | 206 | 0.0 | 0.0 | 0.00 | 0.03 | 0.01 | 96 | 1015.2 |
| 20260904133023 | 70 | 206 | 0.0 | 0.0 | 0.00 | 0.03 | 0.01 | 96 | 1014.6 |
| 20260904131523 | 70 | 206 | 0.0 | 0.0 | 0.00 | 0.03 | 0.01 | 96 | 1014.8 |
| 20260904130023 | 70 | 206 | 0.0 | 0.0 | 0.00 | 0.03 | 0.01 | 96 | 1014.9 |
| 20260904124526 | 70 | 207 | 0.0 | 0.0 | 0.00 | 0.03 | 0.01 | 96 | 1014.8 |
| 20260904123021 | 70 | 206 | 0.0 | 0.0 | 0.00 | 0.03 | 0.01 | 96 | 1014.5 |
| 20260904121520 | 70 | 207 | 0.0 | 0.0 | 0.00 | 0.03 | 0.01 | 96 | 1014.9 |
| 20260904120027 | 70 | 206 | 0.0 | 0.0 | 0.00 | 0.03 | 0.01 | 96 | 1014.6 |
| 20260904114519 | 70 | 207 | 0.0 | 0.0 | 0.00 | 0.03 | 0.01 | 96 | 1014.5 |
| 20260904113019 | 70 | 205 | 0.0 | 0.0 | 0.00 | 0.03 | 0.01 | 96 | 1014.6 |
| 20260904111518 | 70 | 205 | 0.0 | 0.0 | 0.00 | 0.03 | 0.01 | 96 | 1014.1 |
| 20260904110017 | 70 | 213 | 0.0 | 0.0 | 0.00 | 0.03 | 0.01 | 96 | 1013.9 |
| 20260904104521 | 70 | 213 | 0.0 | 0.0 | 0.00 | 0.03 | 0.01 | 96 | 1014.0 |
| 20260904103017 | 70 | 135 | 0.0 | 0.0 | 0.00 | 0.03 | 0.01 | 96 | 1014.0 |
| 20260904101515 | 70 | 135 | 0.0 | 0.0 | 0.00 | 0.03 | 0.01 | 96 | 1013.4 |
| 20260904100020 | 70 | 135 | 0.0 | 0.0 | 0.00 | 0.03 | 0.01 | 96 | 1013.3 |
| 20260904094515 | 70 | 116 | 0.0 | 0.0 | 0.00 | 0.05 | 0.01 | 96 | 1012.9 |
| 20260904093035 | 70 | 143 | 0.0 | 0.0 | 0.00 | 0.05 | 0.01 | 96 | 1013.1 |
| 20260904091512 | 70 | 144 | 0.0 | 0.0 | 0.00 | 0.05 | 0.01 | 96 | 1013.7 |
| 20260904090011 | 70 | 96 | 0.0 | 0.0 | 0.00 | 0.05 | 0.01 | 96 | 1013.9 |
| 20260904084511 | 70 | 140 | 0.0 | 0.0 | 0.00 | 0.15 | 0.01 | 96 | 1013.7 |
| 20260904083010 | 70 | 111 | 0.0 | 0.0 | 0.00 | 0.15 | 0.01 | 96 | 1014.0 |
| 20260904081510 | 71 | 106 | 0.0 | 0.0 | 0.00 | 0.15 | 0.01 | 96 | 1013.9 |
| 20260904080009 | 70 | 230 | 0.0 | 0.0 | 0.00 | 0.15 | 0.01 | 96 | 1013.4 |
| 20260904074508 | 70 | 229 | 0.0 | 0.0 | 0.00 | 0.17 | 0.01 | 96 | 1013.3 |
| 20260904073025 | 71 | 230 | 0.0 | 0.0 | 0.00 | 0.17 | 0.01 | 96 | 1013.4 |
| 20260904071505 | 70 | 230 | 0.0 | 0.0 | 0.00 | 0.17 | 0.01 | 96 | 1013.5 |
| 20260904070007 | 70 | 230 | 0.0 | 0.0 | 0.00 | 0.17 | 0.01 | 96 | 1013.9 |
| 20260904064505 | 70 | 230 | 0.0 | 0.0 | 0.00 | 0.17 | 0.01 | 96 | 1014.0 |
| 20260904063001 | 70 | 230 | 0.0 | 0.0 | 0.00 | 0.17 | 0.01 | 96 | 1014.1 |
| 20260904061604 | 70 | 230 | 0.0 | 0.0 | 0.01 | 0.17 | 0.01 | 96 | 1013.9 |
| 20260904060100 | 70 | 230 | 0.0 | 0.0 | 0.01 | 0.17 | 0.01 | 96 | 1014.1 |
| 20260904054602 | 70 | 230 | 0.0 | 0.0 | 0.01 | 0.28 | 0.01 | 96 | 1014.0 |
| 20260904053137 | 71 | 230 | 0.0 | 0.0 | 0.01 | 0.28 | 0.01 | 96 | 1014.4 |
| 20260904051600 | 71 | 230 | 0.0 | 0.0 | 0.00 | 0.27 | 0.00 | 96 | 1014.3 |
| 20260904050059 | 70 | 230 | 0.0 | 0.0 | 0.00 | 0.27 | 0.00 | 96 | 1014.4 |
| 20260904044555 | 70 | 230 | 0.0 | 0.0 | 0.00 | 0.56 | 0.00 | 96 | 1014.3 |
| 20260904043053 | 70 | 230 | 0.0 | 0.0 | 0.00 | 0.56 | 0.00 | 96 | 1014.5 |
| 20260904041601 | 70 | 230 | 0.0 | 0.0 | 0.00 | 0.56 | 0.00 | 96 | 1014.2 |
| 20260904040048 | 70 | 231 | 0.0 | 0.0 | 0.00 | 0.56 | 0.00 | 95 | 1013.9 |
| 20260904034548 | 70 | 230 | 0.0 | 0.0 | 0.00 | 0.75 | 0.00 | 96 | 1013.8 |
| 20260904033100 | 70 | 230 | 0.0 | 0.0 | 0.00 | 0.75 | 0.00 | 95 | 1013.8 |
| 20260904031545 | 70 | 230 | 0.0 | 0.0 | 0.00 | 0.75 | 0.00 | 95 | 1013.9 |
| 20260904030043 | 70 | 231 | 0.0 | 0.0 | 0.00 | 0.75 | 0.00 | 95 | 1013.7 |